Location: Newark
(13.0328°N, 9.6142°E)
Time: 22:29:59
(UTC+00:00)

OTV 5 (USA 277) - Pass Details

Date: 24 October 2019
Orbit: 310 x 324 km, 54.5° (Epoch: 17 October)

Event Time Altitude Azimuth Distance (km) Brightness Sun altitude
Rises 17:32:15 0° 210° (SSW) 2,032 ? -9.0°
Reaches altitude 10° 17:34:12 10° 207° (SSW) 1,207 ? -9.5°
Maximum altitude 17:36:52 69° 123° (ESE) 341 ? -10.1°
Enters shadow 17:39:17 12° 40° (NE) 1,110 ? -10.7°
